www.pogodaiklimat.ru

Погода и климат >> Архив погоды >> Мексика >> Orizaba


ПОГОДА в Orizaba

  • Прогноз погоды в Orizaba
  • Монитор погоды в Orizaba
  • Климат города

АРХИВ ПОГОДЫ в Orizaba

Время (UTC), дата Ветер
(напр.,м/с)
 
Видим.   Явления Облачность Т
(С)
Тd
(С)
f
(%)
Тe
(С)
Тes
(С)
Комфортность P
(гПа)
Po
(гПа)
Тmin
(С)
Tmax
(С)
R
(мм)
R24
(мм)
S
(см)
15 9.07 В 2
{4}
30 км 10/0 2000 м
[Ac und Cs]
+22.1 +14.4 62 +25 +29 комфорт 1020.2 881.8
18 9.07 В 2 30 км 6/1 700 м
[Cu hum Ac und]
+24.9 +17.3 63 +29 +41 душно 1019.7 882.0 +15.6 +24.9
21 9.07 В 4
{9}
28 км слабая морось 10/6 400 м
[St As op]
+21.0 +17.2 79 +25 +26 комфорт 1018.1 881.4 0.0
00 10.07 В 3 25 км в посл. час гроза {морось} 9/4 300 м
[St Ac As]
+20.0 +17.2 84 +23 +23 комфорт 1017.2 881.0 9
03 10.07 СВ 2
{6}
25 км 8/3 400 м
[St Ac und]
+18.6 +17.4 93 +20 +20 1018.9 882.6
06 10.07 С 2 30 км 4/0 2000 м
[Ac trans]
+17.1 +16.5 96 +17 +17 1020.6 883.4 +15.6 +24.9
09 10.07 С 1
{3}
30 км ясно +15.1 +14.0 93 +16 +16 1019.0 881.2
12 10.07 С 2
{4}
30 км ясно +13.6 +12.0 90 +13 +13 1019.4 880.9 +13.6 +24.9
15 10.07 СВ 3
{5}
30 км 4/0 2000 м
[Ac und]
+19.4 +15.8 80 +21 +27 комфорт 1021.3 882.3
18 10.07 В 4 30 км 6/4 700 м
[Cu med, cong Ac trans]
+24.8 +17.0 62 +29 +36 душно 1019.7 881.6 +13.6 +24.8
21 10.07 ливневой дождь, в посл. час гроза н/о +16.4 1017.5 880.5 0.1
00 11.07 В 3 20 км слабая морось {дождь} 9/8 300 м
[Cu med, cong Ac As]
+19.6 +18.3 92 +22 +22 комфорт 1017.0 880.6 13
03 11.07 СВ 1
{6}
25 км зарница 6/5 400 м
[Cb calv Ac trans]
+18.3 +17.1 93 +20 +20 1017.5 881.3
06 11.07 штиль 0 15 км слабая морось {дождь} 10/4 300 м
[Frnb As op]
+16.3 +15.5 95 +16 +16 1020.6 883.2 17
09 11.07 штиль 0 20 км слабая морось 10/5 400 м
[Frnb As trans]
+15.7 +15.2 97 +15 +15 1019.7 881.7 3
12 11.07 штиль 0 25 км слабая морось 10/3 300 м
[Frnb Ac As]
+15.8 +15.5 98 +16 +16 1018.9 880.7 3
15 11.07 В 2
{4}
30 км 9/1 700 м
[Cu hum Ac und]
+20.2 +17.6 85 +24 +27 комфорт 1019.6 881.2
21 11.07 В 4
{8}
15 км переохл. морось (гололёд) {дождь} 9/9 500 м
[Frnb]
+20.0 +17.2 84 +23 +24 комфорт 1017.0 880.2 7
00 12.07 В 3 20 км в посл. час переохл. осадки {гроза} 9/9 300 м
[St]
+29.2 +17.1 48 +33 +33 очень
душно
1016.0 879.8 22
03 12.07 С 1
{5}
25 км в посл. час морось 6/0 2000 м
[Ac und]
+17.5 +16.6 94 +19 +19 1016.9 880.6 0.7
06 12.07 С 1
{5}
30 км {морось} ясно +14.9 +13.8 93 +15 +15 1018.7 881.3 +14.9 +24.5 0.7
09 12.07 С 1
{1}
30 км ясно +13.3 +11.8 91 +13 +13 1018.1 879.9
12 12.07 С 1 30 км 6/0 2000 м
[Ac und]
+12.6 +11.4 92 +13 +13 1019.0 879.9 +12.4 +24.5
15 12.07 В 2
{4}
30 км ясно +20.2 +13.4 65 +23 +33 комфорт 1020.5 881.1
18 12.07 В 3 30 км 3/1 700 м
[Cu hum Ac trans]
+25.0 +16.9 61 +29 +43 душно 1019.2 880.9 +12.4 +25.0
21 12.07 В 4
{8}
28 км 6/6 700 м
[Sc diur, vesp]
+24.0 +18.3 70 +28 +32 душно 1017.0 880.1
00 13.07 В 3 20 км в посл. час морось 8/8 600 м
[Sc diur, vesp]
+22.0 +18.2 79 +27 +27 душно 1015.1 879.5 0.0
03 13.07 СВ 1
{7}
20 км в посл. час дождь 9/9 400 м
[St]
+18.9 +17.9 94 +21 +21 комфорт 1016.6 881.0 2
06 13.07 С 1 15 км в посл. час дождь {морось} 8/8 300 м
[St]
+19.1 +17.3 89 +22 +22 комфорт 1018.7 882.3 34
09 13.07 С 1
{2}
20 км 10/5 400 м
[St As op]
+17.1 +17.1 100 +18 +18 1017.7 880.7
12 13.07 С 1 30 км 5/0 2000 м
[Ac und]
+15.3 +15.0 98 +16 +16 1017.8 880.1 +15.3 +25.5
15 13.07 В 2
{4}
30 км 3/0 2000 м
[Ac trans]
+21.8 +16.5 72 +26 +34 душно 1019.0 881.1
18 13.07 В 4 30 км 8/5 700 м
[Cu med, cong Ac trans]
+23.3 +17.2 69 +29 +33 душно 1019.3 881.9 +15.1 +24.5
21 13.07 В 4
{8}
15 км в посл. час морось 9/9 500 м
[St]
+22.8 +18.5 77 +29 +30 очень
душно
1017.0 880.6 0.0
00 14.07 В 3 10 км гроза, ливневой дождь 10/10 300 м
[Frnb]
+19.2 +15.1 77 +21 +21 комфорт 1015.4 879.7 4
03 14.07 штиль 0 20 км слабая морось {дождь} 10/10 400 м
[Frnb]
+17.9 +17.9 100 +18 +18 1017.8 881.6 20
06 14.07 штиль 0 20 км {дождь} 10/6 300 м
[Frnb Ac und]
+17.9 +17.9 100 +18 +18 1019.6 882.5 21
09 14.07 штиль 0 30 км 8/0 2000 м
[Ac trans]
+17.8 +17.8 100 +18 +18 1019.1 881.6
12 14.07 штиль 0 30 км {дождь} 9/0 2000 м
[Ac und]
+16.1 +14.7 91 +16 +16 1018.3 880.3 10
15 14.07 В 2
{4}
30 км 5/0
[Ac trans Ci fib]
+20.2 +16.9 81 +24 +31 комфорт 1020.4 882.2
18 14.07 В 4
{7}
30 км 3/3 500 м
[Cu med, cong]
+25.0 +17.1 62 +29 +39 душно 1020.1 882.6 +15.6 +25.2
21 14.07 штиль 0 30 км 4/4 600 м
[Cu hum]
+25.9 +18.1 62 +30 +42 душно 1017.4 881.1
00 15.07 штиль 0 30 км 4/4 600 м
[Cu hum]
+24.3 +17.1 64 +28 +29 душно 1015.7 880.6 +15.6 +27.0
03 15.07 штиль 0 25 км 9/9 400 м
[Frnb]
+20.4 +18.4 88 +24 +24 комфорт 1016.2 881.4
06 15.07 штиль 0 30 км ясно +18.6 +17.3 92 +19 +19 1018.2 882.6 +15.6 +27.0
09 15.07 штиль 0 30 км ясно +16.8 +13.2 79 +17 +17 1016.9 880.5
12 15.07 штиль 0 30 км 6/6 500 м
[St]
+16.7 +13.6 82 +17 +17 1017.9 880.4 +16.4 +27.0
15 15.07 штиль 0 30 км 5/0
[Ac trans]
+21.0 +16.6 76 +24 +33 комфорт 1018.9 881.1
18 15.07 В 4 30 км ясно +27.0 +16.2 52 +30 +45 душно 1018.5 881.4 +16.4 +27.0
21 15.07 В 4
{8}
30 км 6/4 700 м
[Cu hum Ci fib]
+27.6 +16.1 50 +31 +37 душно 1016.0 880.4
00 16.07 В 3 30 км слабая морось {дождь} 6/4 600 м
[Cu hum Ci fib]
+25.6 +17.3 60 +30 +30 душно 1013.7 879.4 +16.4 +28.3
03 16.07 штиль 0 20 км 9/5 400 м
[St As op]
+21.0 +18.0 83 +25 +25 комфорт 1014.5 880.4
06 16.07 С 1 25 км {морось} 5/5 300 м
[St]
+18.7 +14.4 76 +21 +21 комфорт 1016.6 881.6 0.0
09 16.07 штиль 0 30 км ясно +16.1 +11.4 74 +16 +16 1016.3 880.2

 

Местоположение метеостанции Orizaba (Мексика): широта 18.85 долгота -97.10 высота над уровнем моря 1259 м.

В архиве по умолчанию представлена погода в Orizaba за последнюю неделю. Архивные данные за месяц целиком и за предыдущие месяцы, начиная с января 2011 года, Вы можете получить, выбрав интересующий диапазон дат из раскрывающегося списка и нажав кнопку "Ввод!".


*Определитесь, кто Вы:
робот инопланетянин человек

Внимание! Время в таблицах - всемирное. Для получения местного времени необходимо прибавить поправку, которая в Orizaba равна -6 ч.

Смотрите также архив погоды в соседних городах и на ближайших метеорологических станциях:

Погода в Cordoba-In-Veracruz (Мексика) (19 км)
Погода в Jalapa (Мексика) (80 км)
Погода в Verakruz (Мексика) (109 км)
Погода в Puebla (Мексика) (114 км)
Погода в Tlaxcala Airport (Мексика) (130 км)
Погода в Tlaxcala (Мексика) (132 км)
Погода в Huajuapan De Leon (Мексика) (137 км)
Погода в Tulancingo (Мексика) (191 км)
Погода в Oaxaca (Мексика) (204 км)
Погода в Zacatepec (Мексика) (219 км)

Пояснения к столбцам:

Ветер - указаны скорость ветра в м/с - средняя за 10 мин, порывы в срок и между сроками (в фигурных скобках) и направление, откуда дует ветер: С - северный, СВ - северо-восточный, В - восточный, ЮВ - юго-восточный, Ю - южный, ЮЗ - юго-западный, З - западный, СЗ - северо-западный.
Видимость - горизонтальная дальность видимости в метрах или километрах. При видимости от 1 до 10 км при отсутствии осадков обычно наблюдается дымка, при ухудшении видимости до 1 км и менее - туман. В сухую погоду видимость может ухудшаться дымом, пылью или мглою.
Явления - указаны атмосферные явления, наблюдавшиеся в срок или в последний час перед сроком; фигурными скобками обозначены явления, наблюдавшиеся между сроками (за 1-3 часа до срока); квадратными скобками обозначены град или гололедные отложения с указанием их диаметра в мм.
Облачность - указаны через наклонную черту общая и нижняя облачность в баллах и высота нижней границы облаков в метрах; квадратными скобками обозначены формы облаков: Ci - перистые, Cs - перисто-слоистые, Cc - перисто-кучевые, Ac - высококучевые, As - высокослоистые, Sc - слоисто-кучевые, Ns - слоисто-дождевые, Cu - кучевые, Cb - кучево-дождевые. Подробнее классификацию облаков см. в Атласе облаков (PDF).
T - Температура воздуха - температура, измеренная на высоте 2 м над землей.
Td - Температура точки росы - температура, при понижении до которой содержащийся в воздухе водяной пар достигнет насыщения.
f - Относительная влажность воздуха - влажноcть воздуха, измеренная на высоте 2 м над землей.
Te - Эффективная температура - температура, которую ощущает одетый по сезону человек в тени. Характеристика душности погоды. При расчете учитывается влияние влажности воздуха и скорости ветра на теплоощущения человека.
Tes - Эффективная температура на солнце - температура, которую ощущает человек, с поправкой на солнечный нагрев. Характеристика знойности погоды. Зависит от высоты солнца над горизонтом, облачности и скорости ветра. Ночью, в пасмурную погоду, а также при ветре 12 м/с и более поправка равна нулю.
P - Атмосферное давление - приведенное к уровню моря атмосферное давление.
Po - Атмосферное давление - измеренное на уровне метеостанции атмосферное давление.
Tmin - Минимальная температура - минимум температуры воздуха на высоте 2 м над землей.
Tmax - Максимальная температура - максимум температуры воздуха на высоте 2 м над землей.
R - Количество осадков - Количество выпавших осадков за период времени, мм. При наведении курсора мыши на число - период времени, за который выпало указанное количество осадков.
R24 - Количество осадков - Количество выпавших осадков за 24 часа, мм.
S - Снежный покров - Высота снежного покрова, см. При наведении курсора мыши на число - состояние снежного покрова и степень покрытия местности в баллах.